IT9IRS-1 Weather Reports


Display with metric or nautical units.
time (UTC)temp
F
wind
direction
speed
MPH
gust
MPH
rain 1hr
in
rain 24hr
in
rain mn
in
humidity
%
barometer
mb
20260902134004 92 293 18.0 24.0 0.00 0.00 0.00 57 1013.3
20260902133503 91 277 18.0 26.0 0.00 0.00 0.00 57 1013.3
20260902133004 90 281 17.0 26.0 0.00 0.00 0.00 58 1013.3
20260902132503 90 287 19.0 27.0 0.00 0.00 0.00 59 1013.3
20260902132003 90 287 20.0 27.0 0.00 0.00 0.00 59 1014.3
20260902131503 90 282 20.0 24.0 0.00 0.00 0.00 59 1014.3
20260902131003 89 285 24.0 32.0 0.00 0.00 0.00 59 1014.3
20260902130503 89 285 25.0 32.0 0.00 0.00 0.00 60 1014.3
20260902130004 89 279 24.0 32.0 0.00 0.00 0.00 59 1014.3
20260902125503 89 280 23.0 30.0 0.00 0.00 0.00 58 1014.3
20260902125003 89 286 22.0 30.0 0.00 0.00 0.00 58 1014.3
20260902124504 90 286 21.0 26.0 0.00 0.00 0.00 57 1014.3
20260902124214 90 284 20.0 26.0 0.00 0.00 0.00 57 1014.3
20260902123503 90 284 22.0 31.0 0.00 0.00 0.00 58 1014.3
20260902123003 90 283 23.0 31.0 0.00 0.00 0.00 57 1014.3
20260902120504 92 301 17.0 19.0 0.00 0.00 0.00 45 1014.3
20260902115004 92 305 17.0 22.0 0.00 0.00 0.00 42 1014.3
20260902114504 92 300 15.0 19.0 0.00 0.00 0.00 42 1014.3
20260902114217 92 303 14.0 19.0 0.00 0.00 0.00 42 1014.3
20260902113504 92 292 17.0 24.0 0.00 0.00 0.00 43 1014.3
20260902113004 92 278 17.0 23.0 0.00 0.00 0.00 38 1014.3
20260902112504 93 275 15.0 21.0 0.00 0.00 0.00 38 1014.3
20260902112214 92 285 16.0 21.0 0.00 0.00 0.00 39 1014.3
20260902111717 92 289 18.0 22.0 0.00 0.00 0.00 40 1014.3
20260902111004 92 276 17.0 25.0 0.00 0.00 0.00 39 1014.3
20260902110504 92 272 16.0 25.0 0.00 0.00 0.00 42 1014.3
20260902110006 93 278 16.0 25.0 0.00 0.00 0.00 39 1014.3
20260902105504 93 298 15.0 22.0 0.00 0.00 0.00 42 1014.3
20260902105217 93 298 15.0 22.0 0.00 0.00 0.00 41 1014.3
20260902104504 93 296 14.0 18.0 0.00 0.00 0.00 43 1014.3
20260902104003 93 299 13.0 18.0 0.00 0.00 0.00 42 1014.3
20260902103715 94 299 12.0 18.0 0.00 0.00 0.00 43 1014.3
20260902103003 93 275 12.0 16.0 0.00 0.00 0.00 41 1015.3
20260902102503 93 272 12.0 16.0 0.00 0.00 0.00 40 1015.3
20260902102003 93 272 11.0 16.0 0.00 0.00 0.00 41 1015.3
20260902101503 92 282 9.0 15.0 0.00 0.00 0.00 41 1015.3
20260902101215 92 279 10.0 15.0 0.00 0.00 0.00 41 1015.3
20260902100504 92 277 9.0 13.0 0.00 0.00 0.00 43 1015.3
20260902100003 91 272 10.0 13.0 0.00 0.00 0.00 44 1015.3
20260902095714 91 270 9.0 13.0 0.00 0.00 0.00 46 1015.3
20260902095003 91 270 9.0 13.0 0.00 0.00 0.00 44 1015.3
20260902094503 90 270 10.0 13.0 0.00 0.00 0.00 47 1015.3
20260902094003 90 270 10.0 16.0 0.00 0.00 0.00 47 1015.3
20260902093503 89 273 10.0 16.0 0.00 0.00 0.00 49 1015.3
20260902093003 89 276 10.0 15.0 0.00 0.00 0.00 51 1015.3
20260902092503 89 288 10.0 15.0 0.00 0.00 0.00 52 1015.3
20260902092003 89 288 10.0 15.0 0.00 0.00 0.00 53 1015.3
20260902091504 88 270 11.0 15.0 0.00 0.00 0.00 51 1015.3
20260902091003 88 278 12.0 14.0 0.00 0.00 0.00 56 1015.3
20260902090503 88 281 12.0 14.0 0.00 0.00 0.00 58 1015.3
20260902090004 88 275 10.0 14.0 0.00 0.00 0.00 61 1015.3
20260902085503 88 285 9.0 14.0 0.00 0.00 0.00 62 1015.3
20260902085218 87 281 10.0 14.0 0.00 0.00 0.00 61 1015.3
20260902084716 87 283 10.0 14.0 0.00 0.00 0.00 64 1015.3
20260902084004 87 271 9.0 12.0 0.00 0.00 0.00 66 1015.3
20260902083504 86 228 8.0 12.0 0.00 0.00 0.00 67 1015.3
20260902083004 85 183 7.0 9.0 0.00 0.00 0.00 71 1015.3
20260902082504 85 180 7.0 9.0 0.00 0.00 0.00 72 1015.3
20260902082004 84 180 7.0 9.0 0.00 0.00 0.00 72 1015.3
20260902081504 83 180 8.0 10.0 0.00 0.00 0.00 72 1015.3
20260902081004 83 178 8.0 14.0 0.00 0.00 0.00 72 1015.3
20260902080505 83 178 8.0 14.0 0.00 0.00 0.00 72 1015.3
20260902080218 83 183 7.0 9.0 0.00 0.00 0.00 72 1015.3
20260902075504 82 194 6.0 13.0 0.00 0.00 0.00 71 1015.3
20260902075004 82 193 6.0 13.0 0.00 0.00 0.00 71 1014.3
20260902074504 82 198 6.0 8.0 0.00 0.00 0.00 72 1014.3
20260902074004 82 187 6.0 8.0 0.00 0.00 0.00 72 1014.3
20260902073504 82 180 5.0 7.0 0.00 0.00 0.00 72 1014.3
20260902073004 82 205 3.0 5.0 0.00 0.00 0.00 72 1014.3
20260902072504 82 213 3.0 5.0 0.00 0.00 0.00 72 1014.3
20260902072003 81 206 4.0 8.0 0.00 0.00 0.00 72 1014.3
20260902071504 81 188 6.0 8.0 0.00 0.00 0.00 72 1014.3
20260902071004 81 181 5.0 8.0 0.00 0.00 0.00 72 1014.3
20260902070504 82 194 2.0 6.0 0.00 0.00 0.00 73 1014.3
20260902070213 82 284 1.0 3.0 0.00 0.00 0.00 73 1014.3
20260902065504 82 299 1.0 3.0 0.00 0.00 0.00 74 1014.3
20260902065214 81 305 1.0 3.0 0.00 0.00 0.00 74 1014.3
20260902064504 81 315 1.0 2.0 0.00 0.00 0.00 74 1014.3
20260902064215 81 315 0.0 2.0 0.00 0.00 0.00 74 1014.3
20260902063713 81 315 0.0 1.0 0.00 0.00 0.00 74 1014.3
20260902063003 80 329 1.0 4.0 0.00 0.00 0.00 75 1014.3
20260902062503 79 349 1.0 3.0 0.00 0.00 0.00 75 1014.3
20260902062003 78 330 1.0 3.0 0.00 0.00 0.00 76 1014.3
20260902061003 78 315 1.0 3.0 0.00 0.00 0.00 77 1014.3
20260902060503 78 315 0.0 2.0 0.00 0.00 0.00 77 1014.3
20260902060003 77 315 0.0 2.0 0.00 0.00 0.00 77 1014.3
20260902055717 77 315 0.0 2.0 0.00 0.00 0.00 78 1014.3
20260902055003 76 315 0.0 3.0 0.00 0.00 0.00 78 1014.3
20260902054713 76 315 1.0 3.0 0.00 0.00 0.00 78 1014.3
20260902054003 75 315 2.0 3.0 0.00 0.00 0.00 78 1014.3
20260902053503 75 315 1.0 3.0 0.00 0.00 0.00 78 1014.3
20260902053003 75 315 1.0 2.0 0.00 0.00 0.00 78 1014.3
20260902052503 75 356 1.0 2.0 0.00 0.00 0.00 78 1014.3
20260902052003 75 349 1.0 3.0 0.00 0.00 0.00 78 1014.3
20260902051503 75 341 2.0 4.0 0.00 0.00 0.00 78 1014.3
20260902051003 76 348 1.0 4.0 0.00 0.00 0.00 79 1014.3
20260902050504 76 25 2.0 4.0 0.00 0.00 0.00 79 1014.3
20260902050007 76 60 1.0 4.0 0.00 0.00 0.00 80 1014.3
20260902045717 75 88 1.0 4.0 0.00 0.00 0.00 80 1014.3
20260902045004 75 180 1.0 3.0 0.00 0.00 0.00 80 1014.3
20260902044504 75 315 1.0 3.0 0.00 0.00 0.00 80 1014.3
20260902044004 75 315 2.0 4.0 0.00 0.00 0.00 80 1014.3
20260902043504 75 308 3.0 4.0 0.00 0.00 0.00 80 1014.3
20260902043004 76 287 2.0 4.0 0.00 0.00 0.00 80 1014.3
20260902042504 76 245 1.0 3.0 0.00 0.00 0.00 81 1014.3
20260902042004 76 180 0.0 2.0 0.00 0.00 0.00 81 1013.3
20260902041505 76 315 0.0 2.0 0.00 0.00 0.00 81 1013.3
20260902041215 76 299 1.0 2.0 0.00 0.00 0.00 81 1013.3
20260902040717 76 285 1.0 2.0 0.00 0.00 0.00 82 1013.3
20260902040004 76 274 1.0 2.0 0.00 0.00 0.00 82 1013.3
20260902035504 76 257 1.0 5.0 0.00 0.00 0.00 83 1013.3
20260902035004 76 284 1.0 5.0 0.00 0.00 0.00 83 1013.3
20260902034505 76 33 1.0 2.0 0.00 0.00 0.00 83 1013.3
20260902034003 76 83 1.0 3.0 0.00 0.00 0.00 83 1013.3
20260902033503 76 90 0.0 3.0 0.00 0.00 0.00 83 1013.3
20260902033003 76 337 0.0 2.0 0.00 0.00 0.00 83 1013.3
20260902032504 76 356 2.0 4.0 0.00 0.00 0.00 83 1013.3
20260902032004 76 7 2.0 4.0 0.00 0.00 0.00 84 1013.3
20260902031505 77 29 2.0 5.0 0.00 0.00 0.00 84 1013.3
20260902031003 77 37 3.0 5.0 0.00 0.00 0.00 84 1013.3
20260902030504 77 32 3.0 4.0 0.00 0.00 0.00 84 1013.3
20260902030003 77 28 3.0 5.0 0.00 0.00 0.00 85 1013.3
20260902025504 77 28 5.0 8.0 0.00 0.00 0.00 84 1013.3
20260902025003 77 34 6.0 8.0 0.00 0.00 0.00 86 1013.3
20260902024505 77 48 5.0 8.0 0.00 0.00 0.00 86 1013.3
20260902024003 76 42 5.0 11.0 0.00 0.00 0.00 86 1013.3
20260902023715 76 39 5.0 11.0 0.00 0.00 0.00 86 1013.3
20260902023004 76 19 4.0 5.0 0.00 0.00 0.00 86 1014.3
20260902022503 75 15 3.0 5.0 0.00 0.00 0.00 85 1014.3
20260902022003 75 7 3.0 5.0 0.00 0.00 0.00 85 1014.3
20260902021503 75 15 3.0 5.0 0.00 0.00 0.00 84 1014.3
20260902021216 75 19 3.0 5.0 0.00 0.00 0.00 84 1014.3
20260902020503 75 16 3.0 4.0 0.00 0.00 0.00 83 1014.3
20260902020005 75 13 3.0 4.0 0.00 0.00 0.00 83 1014.3
20260902015503 75 24 3.0 4.0 0.00 0.00 0.00 83 1014.3
20260902015003 76 35 2.0 3.0 0.00 0.00 0.00 82 1014.3
20260902014503 76 35 1.0 3.0 0.00 0.00 0.00 82 1014.3
20260902014003 76 45 0.0 2.0 0.00 0.00 0.00 82 1014.3
20260902013503 76 0 0.0 0.0 0.00 0.00 0.00 82 1014.3
20260902013214 76 22 0.0 2.0 0.00 0.00 0.00 82 1014.3
20260902012503 76 22 0.0 2.0 0.00 0.00 0.00 82 1014.3
20260902012003 76 32 0.0 2.0 0.00 0.00 0.00 82 1014.3
20260902011503 76 25 0.0 2.0 0.00 0.00 0.00 82 1014.3
20260902011003 76 360 0.0 2.0 0.00 0.00 0.00 82 1014.3
20260902010504 75 360 0.0 2.0 0.00 0.00 0.00 81 1014.3
20260902010005 75 360 0.0 2.0 0.00 0.00 0.00 81 1014.3
20260902005505 76 4 1.0 3.0 0.00 0.00 0.00 81 1014.3
20260902005218 76 21 1.0 4.0 0.00 0.00 0.00 81 1014.3
20260902004504 76 32 1.0 4.0 0.00 0.00 0.00 81 1014.3
20260902004005 76 45 0.0 1.0 0.00 0.00 0.00 81 1014.3
20260902003717 76 0 0.0 0.0 0.00 0.00 0.00 80 1014.3
20260902003005 76 3 1.0 2.0 0.00 0.00 0.00 80 1014.3
20260902002504 76 35 2.0 4.0 0.00 0.00 0.00 80 1014.3
20260902002004 76 48 2.0 4.0 0.00 0.00 0.00 80 1014.3
20260902001714 76 42 2.0 4.0 0.00 0.00 0.00 80 1014.3
20260902001005 75 22 0.0 3.0 0.00 0.00 0.00 79 1014.3
20260902000504 75 315 0.0 2.0 0.00 0.00 0.00 78 1014.3
20260902000004 75 315 1.0 2.0 0.00 0.00 0.00 78 1014.3
20260901235716 75 321 1.0 2.0 0.00 0.00 0.00 78 1014.3
20260901235004 75 5 1.0 3.0 0.00 0.00 0.00 78 1014.3
20260901234504 75 350 2.0 3.0 0.00 0.00 0.00 78 1014.3
20260901234004 76 332 1.0 3.0 0.00 0.00 0.00 77 1014.3
20260901233504 76 315 1.0 4.0 0.00 0.00 0.00 77 1014.3
20260901233003 76 323 3.0 7.0 0.00 0.00 0.00 77 1014.3
20260901232504 76 320 5.0 7.0 0.00 0.00 0.00 76 1014.3
20260901232003 76 320 5.0 6.0 0.00 0.00 0.00 76 1014.3
20260901231503 76 314 5.0 6.0 0.00 0.00 0.00 76 1014.3
20260901231004 76 315 4.0 5.0 0.00 0.00 0.00 76 1014.3
20260901230503 76 321 4.0 6.0 0.00 0.00 0.00 76 1014.3
20260901230004 76 323 4.0 6.0 0.00 0.00 0.00 75 1014.3
20260901225503 76 315 3.0 5.0 0.00 0.00 0.00 75 1014.3
20260901225003 76 312 3.0 4.0 0.00 0.00 0.00 75 1014.3
20260901224503 77 315 3.0 4.0 0.00 0.00 0.00 75 1014.3
20260901224003 77 311 2.0 4.0 0.00 0.00 0.00 74 1014.3
20260901223503 77 279 2.0 3.0 0.00 0.00 0.00 74 1014.3
20260901223216 77 284 3.0 6.0 0.00 0.00 0.00 74 1014.3
20260901222503 77 302 3.0 6.0 0.00 0.00 0.00 73 1014.3
20260901222003 78 321 2.0 5.0 0.00 0.00 0.00 73 1014.3
20260901221504 78 356 1.0 2.0 0.00 0.00 0.00 73 1014.3
20260901221003 79 11 1.0 2.0 0.00 0.00 0.00 73 1014.3
20260901220503 79 27 1.0 3.0 0.00 0.00 0.00 74 1014.3
20260901220003 79 279 1.0 4.0 0.00 0.00 0.00 74 1014.3
20260901215503 79 206 2.0 5.0 0.00 0.00 0.00 74 1014.3
20260901215003 79 180 1.0 5.0 0.00 0.00 0.00 74 1014.3
20260901214503 79 360 0.0 1.0 0.00 0.00 0.00 74 1014.3
20260901214004 80 8 1.0 3.0 0.00 0.00 0.00 74 1014.3
20260901213504 80 18 3.0 6.0 0.00 0.00 0.00 74 1014.3
20260901213004 80 30 4.0 6.0 0.00 0.00 0.00 74 1014.3
20260901212504 80 42 4.0 6.0 0.00 0.00 0.00 73 1014.3
20260901212004 80 45 3.0 6.0 0.00 0.00 0.00 73 1014.3
20260901211504 80 53 3.0 6.0 0.00 0.00 0.00 73 1014.3
20260901211213 80 50 3.0 6.0 0.00 0.00 0.00 73 1014.3
20260901210504 80 32 4.0 6.0 0.00 0.00 0.00 73 1014.3
20260901210004 80 9 4.0 7.0 0.00 0.00 0.00 73 1014.3
20260901205504 80 6 5.0 7.0 0.00 0.00 0.00 73 1014.3
20260901205004 79 5 5.0 7.0 0.00 0.00 0.00 73 1014.3
20260901204504 79 2 5.0 7.0 0.00 0.00 0.00 73 1014.3
20260901204004 79 6 5.0 7.0 0.00 0.00 0.00 72 1014.3
20260901203504 79 7 4.0 8.0 0.00 0.00 0.00 72 1014.3
20260901203217 79 3 4.0 8.0 0.00 0.00 0.00 71 1014.3
20260901202504 79 358 3.0 5.0 0.00 0.00 0.00 70 1014.3
20260901202004 79 358 3.0 4.0 0.00 0.00 0.00 69 1014.3
20260901201504 79 360 3.0 5.0 0.00 0.00 0.00 69 1014.3
20260901201004 80 360 4.0 5.0 0.00 0.00 0.00 68 1014.3
20260901200504 80 3 4.0 6.0 0.00 0.00 0.00 67 1014.3
20260901200004 80 2 4.0 6.0 0.00 0.00 0.00 66 1014.3
20260901195503 80 356 3.0 6.0 0.00 0.00 0.00 64 1014.3
20260901195003 81 359 3.0 5.0 0.00 0.00 0.00 62 1014.3
20260901194503 81 360 4.0 6.0 0.00 0.00 0.00 62 1014.3
20260901194003 81 353 3.0 6.0 0.00 0.00 0.00 60 1014.3
20260901193504 82 360 5.0 12.0 0.00 0.00 0.00 60 1014.3
20260901193003 83 7 6.0 12.0 0.00 0.00 0.00 61 1014.3
20260901192503 82 5 5.0 8.0 0.00 0.00 0.00 61 1014.3
20260901192214 82 2 5.0 8.0 0.00 0.00 0.00 60 1014.3
20260901191717 83 2 3.0 6.0 0.00 0.00 0.00 58 1014.3
20260901191003 83 21 3.0 5.0 0.00 0.00 0.00 55 1014.3
20260901190713 84 17 3.0 6.0 0.00 0.00 0.00 54 1014.3
20260901190003 84 5 5.0 6.0 0.00 0.00 0.00 54 1014.3
20260901185503 84 4 4.0 5.0 0.00 0.00 0.00 53 1014.3
20260901185003 84 360 4.0 5.0 0.00 0.00 0.00 52 1013.3
20260901184504 85 3 4.0 5.0 0.00 0.00 0.00 51 1013.3
20260901184212 85 4 4.0 6.0 0.00 0.00 0.00 51 1013.3
20260901183503 85 10 5.0 7.0 0.00 0.00 0.00 50 1013.3
20260901183003 86 6 5.0 6.0 0.00 0.00 0.00 50 1013.3
20260901182504 86 8 4.0 5.0 0.00 0.00 0.00 49 1013.3
20260901182214 86 17 4.0 6.0 0.00 0.00 0.00 49 1013.3
20260901181503 87 12 5.0 7.0 0.00 0.00 0.00 48 1013.3
20260901181003 87 3 4.0 6.0 0.00 0.00 0.00 46 1013.3
20260901180504 88 15 5.0 6.0 0.00 0.00 0.00 45 1012.3
20260901180216 88 16 5.0 5.0 0.00 0.00 0.00 44 1012.3
20260901175504 89 5 5.0 8.0 0.00 0.00 0.00 41 1012.3
20260901175004 89 5 6.0 9.0 0.00 0.00 0.00 39 1012.3
20260901174505 89 360 6.0 10.0 0.00 0.00 0.00 38 1012.3
20260901174005 90 357 7.0 10.0 0.00 0.00 0.00 37 1012.3
20260901173504 90 353 7.0 10.0 0.00 0.00 0.00 36 1012.3
20260901173004 90 354 8.0 13.0 0.00 0.00 0.00 35 1012.3
20260901172504 91 357 8.0 13.0 0.00 0.00 0.00 34 1012.3
20260901172215 91 360 8.0 13.0 0.00 0.00 0.00 34 1012.3
20260901171504 92 350 6.0 11.0 0.00 0.00 0.00 33 1012.3
20260901171004 92 2 6.0 10.0 0.00 0.00 0.00 41 1012.3
20260901170714 92 355 6.0 11.0 0.00 0.00 0.00 43 1012.3
20260901170217 93 350 8.0 13.0 0.00 0.00 0.00 39 1012.3
20260901165504 94 353 5.0 12.0 0.00 0.00 0.00 36 1012.3
20260901165004 94 341 5.0 12.0 0.00 0.00 0.00 37 1012.3
20260901164716 94 348 6.0 10.0 0.00 0.00 0.00 33 1012.3
20260901164003 95 10 8.0 14.0 0.00 0.00 0.00 27 1012.3
20260901163505 95 18 9.0 13.0 0.00 0.00 0.00 27 1012.3
20260901163003 96 37 9.0 14.0 0.00 0.00 0.00 27 1012.3
20260901162713 96 31 10.0 15.0 0.00 0.00 0.00 27 1012.3
20260901162004 96 13 11.0 18.0 0.00 0.00 0.00 26 1012.3
20260901161504 96 24 10.0 18.0 0.00 0.00 0.00 27 1012.3
20260901161004 97 25 10.0 15.0 0.00 0.00 0.00 26 1012.3
20260901160504 97 17 11.0 15.0 0.00 0.00 0.00 26 1012.3
20260901160004 97 12 10.0 14.0 0.00 0.00 0.00 26 1012.3
20260901155503 98 10 9.0 12.0 0.00 0.00 0.00 26 1012.3
20260901155214 98 14 8.0 14.0 0.00 0.00 0.00 26 1012.3
20260901154716 98 28 9.0 14.0 0.00 0.00 0.00 25 1012.3
20260901154003 98 37 9.0 14.0 0.00 0.00 0.00 23 1012.3
20260901153503 98 30 10.0 13.0 0.00 0.00 0.00 23 1011.3
20260901153005 98 35 10.0 13.0 0.00 0.00 0.00 23 1011.3
20260901152503 98 41 9.0 12.0 0.00 0.00 0.00 23 1011.3
20260901152003 98 31 8.0 18.0 0.00 0.00 0.00 22 1012.3
20260901151503 98 27 7.0 18.0 0.00 0.00 0.00 23 1012.3
20260901151003 98 321 5.0 10.0 0.00 0.00 0.00 29 1012.3
20260901150503 98 294 6.0 8.0 0.00 0.00 0.00 42 1012.3
20260901150003 98 283 7.0 10.0 0.00 0.00 0.00 38 1012.3
20260901145504 98 281 8.0 14.0 0.00 0.00 0.00 39 1012.3
20260901145214 98 274 9.0 19.0 0.00 0.00 0.00 40 1012.3
20260901144504 97 268 9.0 19.0 0.00 0.00 0.00 41 1012.3
20260901144003 96 253 9.0 17.0 0.00 0.00 0.00 43 1012.3
20260901143503 96 253 11.0 17.0 0.00 0.00 0.00 41 1011.3
20260901143003 95 261 11.0 17.0 0.00 0.00 0.00 42 1011.3
20260901142503 95 236 9.0 12.0 0.00 0.00 0.00 44 1011.3
20260901142003 95 254 9.0 15.0 0.00 0.00 0.00 49 1012.3
20260901141503 94 263 9.0 15.0 0.00 0.00 0.00 46 1012.3
20260901141218 94 266 9.0 15.0 0.00 0.00 0.00 50 1012.3
20260901140504 92 252 8.0 11.0 0.00 0.00 0.00 57 1012.3
20260901140004 90 230 9.0 13.0 0.00 0.00 0.00 60 1012.3
20260901135504 92 222 10.0 13.0 0.00 0.00 0.00 57 1012.3
20260901135004 91 253 11.0 15.0 0.00 0.00 0.00 58 1012.3
20260901134504 91 270 13.0 15.0 0.00 0.00 0.00 57 1012.3